TimeCEST,TemperatureF,Dew PointF,Humidity,Sea Level PressureIn,VisibilityMPH,Wind Direction,Wind SpeedMPH,Gust SpeedMPH,PrecipitationIn,Events,Conditions,WindDirDegrees,DateUTC
12:25 AM,51.8,51.8,100,29.86,1.5,NNW,4.6,-,N/A,,Overcast,340,2013-05-30 22:25:00
12:55 AM,51.8,51.8,100,29.86,1.7,NNW,4.6,-,N/A,,Scattered Clouds,330,2013-05-30 22:55:00
1:25 AM,51.8,51.8,100,29.86,1.5,NNW,6.9,-,N/A,,Overcast,340,2013-05-30 23:25:00
1:55 AM,50.0,50.0,100,29.89,1.1,NNW,5.8,-,N/A,,Overcast,340,2013-05-30 23:55:00
2:00 AM,51,51,98,29.90,1,NNW,6.7,,,,Mist,340,2013-05-31 00:00:00
2:25 AM,50.0,50.0,100,29.89,0.7,NNW,8.1,-,N/A,,Overcast,340,2013-05-31 00:25:00
2:55 AM,50.0,50.0,100,29.86,0.6,NNW,8.1,-,N/A,Fog,Fog,330,2013-05-31 00:55:00
3:25 AM,51.8,50.0,94,29.86,1.1,NW,5.8,-,N/A,,Overcast,320,2013-05-31 01:25:00
3:55 AM,50.0,50.0,100,29.86,0.7,NNW,9.2,-,N/A,,Overcast,330,2013-05-31 01:55:00
4:25 AM,50.0,50.0,100,29.86,0.5,NNW,8.1,-,N/A,Fog,Fog,330,2013-05-31 02:25:00
4:55 AM,51.8,51.8,100,29.86,0.7,NNW,8.1,-,N/A,,Overcast,340,2013-05-31 02:55:00
5:00 AM,51,51,99,29.88,0,NNW,8.9,,,Fog,Fog,330,2013-05-31 03:00:00
5:25 AM,51.8,51.8,100,29.86,0.6,NNW,8.1,-,N/A,Fog,Fog,340,2013-05-31 03:25:00
5:55 AM,51.8,51.8,100,29.86,0.4,NNW,8.1,-,N/A,Fog,Fog,340,2013-05-31 03:55:00
6:25 AM,51.8,51.8,100,29.86,-9999.0,NNW,6.9,-,N/A,Fog,Fog,340,2013-05-31 04:25:00
6:55 AM,51.8,51.8,100,29.86,-9999.0,NW,5.8,-,N/A,Fog,Fog,320,2013-05-31 04:55:00
7:25 AM,51.8,51.8,100,29.86,0.9,NW,8.1,-,N/A,,Overcast,320,2013-05-31 05:25:00
7:55 AM,51.8,51.8,100,29.86,1.2,NW,6.9,-,N/A,,Overcast,320,2013-05-31 05:55:00
8:00 AM,52,52,100,29.89,1,NNW,6.7,,,Fog,Fog,330,2013-05-31 06:00:00
8:25 AM,53.6,51.8,94,29.89,-9999.0,NW,6.9,-,N/A,,Overcast,320,2013-05-31 06:25:00
8:55 AM,55.4,53.6,94,29.89,5.0,NNW,8.1,-,N/A,,Overcast,330,2013-05-31 06:55:00
9:25 AM,55.4,53.6,94,29.89,6.2,NNW,9.2,-,N/A,,Partly Cloudy,330,2013-05-31 07:25:00
9:55 AM,57.2,53.6,88,29.89,6.2,NNW,11.5,-,N/A,,Partly Cloudy,330,2013-05-31 07:55:00
10:25 AM,59.0,53.6,82,29.89,6.2,NNW,11.5,-,N/A,,Partly Cloudy,340,2013-05-31 08:25:00
10:55 AM,60.8,53.6,77,29.89,6.2,NNW,11.5,-,N/A,,Unknown,340,2013-05-31 08:55:00
11:00 AM,60,54,74,29.91,9,NNW,11.2,,,,,340,2013-05-31 09:00:00
11:25 AM,60.8,55.4,82,29.89,6.2,NNW,10.4,-,N/A,,Unknown,340,2013-05-31 09:25:00
11:55 AM,60.8,55.4,82,29.89,6.2,NNW,10.4,-,N/A,,Unknown,340,2013-05-31 09:55:00
12:25 PM,60.8,55.4,82,29.89,6.2,NNW,10.4,-,N/A,,Unknown,340,2013-05-31 10:25:00
12:55 PM,62.6,55.4,77,29.92,6.2,NNW,11.5,-,N/A,,Unknown,330,2013-05-31 10:55:00
1:25 PM,64.4,57.2,77,29.92,6.2,NNW,11.5,-,N/A,,Unknown,340,2013-05-31 11:25:00
1:55 PM,64.4,55.4,73,29.92,6.2,NNW,12.7,-,N/A,,Unknown,340,2013-05-31 11:55:00
2:00 PM,65,54,60,29.93,11,NNW,13.4,,,,Partly Cloudy,340,2013-05-31 12:00:00
2:25 PM,64.4,53.6,68,29.92,6.2,NNW,13.8,-,N/A,,Unknown,340,2013-05-31 12:25:00
2:55 PM,64.4,53.6,68,29.92,6.2,NNW,18.4,-,N/A,,Unknown,340,2013-05-31 12:55:00
3:25 PM,62.6,51.8,68,29.92,6.2,NNW,17.3,-,N/A,,Unknown,340,2013-05-31 13:25:00
3:55 PM,62.6,51.8,68,29.92,6.2,North,17.3,-,N/A,,Unknown,350,2013-05-31 13:55:00
4:25 PM,62.6,51.8,68,29.92,6.2,North,16.1,-,N/A,,Unknown,350,2013-05-31 14:25:00
4:55 PM,62.6,51.8,68,29.95,6.2,North,15.0,-,N/A,,Unknown,350,2013-05-31 14:55:00
5:00 PM,61,52,65,29.96,11,North,13.4,,,,Scattered Clouds,0,2013-05-31 15:00:00
5:25 PM,60.8,51.8,72,29.95,6.2,NNW,16.1,-,N/A,,Unknown,340,2013-05-31 15:25:00
5:55 PM,60.8,53.6,77,29.95,6.2,NNW,13.8,-,N/A,,Unknown,340,2013-05-31 15:55:00
6:25 PM,59.0,51.8,77,29.95,6.2,NNW,13.8,-,N/A,,Unknown,340,2013-05-31 16:25:00
6:55 PM,57.2,51.8,82,29.95,6.2,NNW,13.8,-,N/A,,Partly Cloudy,330,2013-05-31 16:55:00
7:25 PM,55.4,50.0,82,29.95,6.2,NNW,13.8,-,N/A,,Mostly Cloudy,330,2013-05-31 17:25:00
7:55 PM,51.8,50.0,94,29.98,6.2,NNW,12.7,-,N/A,,Overcast,330,2013-05-31 17:55:00
8:00 PM,52,50,90,29.98,8,NNW,13.4,,,,Partly Cloudy,330,2013-05-31 18:00:00
8:25 PM,51.8,50.0,94,29.98,6.2,NNW,13.8,-,N/A,,Overcast,330,2013-05-31 18:25:00
8:55 PM,51.8,50.0,94,29.98,6.2,NNW,9.2,-,N/A,,Overcast,330,2013-05-31 18:55:00
9:25 PM,51.8,50.0,94,29.98,6.2,NNW,11.5,-,N/A,,Overcast,340,2013-05-31 19:25:00
9:55 PM,50.0,50.0,100,29.98,6.2,NNW,10.4,-,N/A,,Overcast,340,2013-05-31 19:55:00
10:25 PM,50.0,50.0,100,30.01,4.3,NNW,10.4,-,N/A,,Overcast,330,2013-05-31 20:25:00
10:55 PM,50.0,50.0,100,30.01,5.6,NNW,9.2,-,N/A,,Overcast,340,2013-05-31 20:55:00
11:00 PM,50,49,96,30.02,4,NNW,11.2,,,,Mist,340,2013-05-31 21:00:00
11:25 PM,50.0,50.0,100,30.01,3.7,NNW,13.8,-,N/A,,Overcast,330,2013-05-31 21:25:00
11:55 PM,50.0,50.0,100,30.01,3.7,NNW,10.4,-,N/A,,Overcast,340,2013-05-31 21:55:00